Home > Weather > Naples > Past weeks

Flag for Italy Past Weather in Naples, Italy — Yesterday and Last 2 Weeks

Now
84 °F

Sunny.


Feels Like: 83 °F
Forecast: 71 / 90 °F
Wind: 5 mph from North

Location: Naples / Capodichino

Current Time: Aug 26, 2016 at 10:41:39 AM

Latest Report: Aug 26, 2016 at 9:50 AM


Visibility: 10 mi

Pressure: 30.04 "Hg

Humidity: 35%

Dew Point: 54 °F

Location of NaplesLocation

Past Weather in Naples — Graph

°F

Naples Temperature Yesterday

Maximum temperature yesterday: 91 °F (at 1:50 PM)
Minimum temperature yesterday: 73 °F (at 5:50 AM)
Average temperature yesterday: 83 °F

High & Low Weather Summary for the Past Weeks

 TemperatureHumidityPressure
High91 °F (Aug 25, 1:50 PM)89% (Aug 11, 11:20 AM)30.18 "Hg (Aug 11, 11:20 AM)
Low66 °F (Aug 13, 4:20 AM)23% (Aug 12, 1:50 PM)29.86 "Hg (Aug 18, 4:20 AM)
Average78 °F55%30.02 "Hg
* Reported Aug 11 9:20 AM — Aug 26 9:20 AM, Naples, Weather by CustomWeather, © 2016

Note: Actual official high and low records may vary slightly from our data, if they occured in-between our weather recording intervals... More about our weather records

Advertising

Naples Weather History for the Previous 24 Hours

Scroll right to see more
 ConditionsComfort  
Time TempWeatherWind HumidityBarometerVisibility
9:20 AM
Fri, Aug 26
82 °FPassing clouds.6 mph37%30.04 "HgN/A
8:50 AM81 °FSunny.5 mph39%30.04 "Hg10 mi
8:20 AM79 °FSunny.3 mph42%30.04 "Hg10 mi
7:50 AM77 °FSunny.2 mph44%30.04 "Hg10 mi
7:20 AM75 °FClear.2 mph47%30.04 "Hg10 mi
6:50 AM73 °FClear.3 mph50%30.01 "Hg10 mi
6:20 AM73 °FClear.3 mph50%30.01 "Hg10 mi
5:50 AM75 °FClear.5 mph47%30.01 "Hg10 mi
5:20 AM73 °FClear.7 mph50%30.01 "Hg10 mi
4:50 AM73 °FClear.5 mph50%30.01 "Hg10 mi
4:20 AM73 °FClear.6 mph50%30.01 "Hg10 mi
3:50 AM73 °FClear.5 mph50%30.01 "Hg10 mi
3:20 AM75 °FClear.3 mph47%30.01 "Hg10 mi
2:50 AM75 °FClear.5 mph50%30.01 "Hg10 mi
2:20 AM75 °FClear.5 mph50%30.01 "Hg10 mi
1:50 AM75 °FClear.5 mph50%30.01 "Hg10 mi
12:50 AM77 °FClear.5 mph47%30.01 "Hg10 mi
12:20 AM77 °FClear.6 mph47%30.01 "Hg10 mi
11:50 PM
Thu, Aug 25
77 °FClear.7 mph47%30.01 "Hg10 mi
11:20 PM79 °FClear.8 mph42%30.01 "Hg10 mi
10:50 PM81 °FPassing clouds.6 mph39%30.01 "HgN/A
10:20 PM81 °FPassing clouds.6 mph39%30.01 "HgN/A
9:50 PM81 °FPassing clouds.7 mph42%30.01 "HgN/A
9:20 PM81 °FPassing clouds.7 mph42%30.01 "HgN/A
8:50 PM82 °FClear.12 mph40%29.98 "Hg10 mi
8:20 PM82 °FSunny.13 mph40%29.98 "Hg10 mi
7:50 PM84 °FPassing clouds.10 mph37%29.98 "HgN/A
7:20 PM86 °FSunny.13 mph35%29.95 "Hg10 mi
6:50 PM88 °FSunny.13 mph35%29.95 "Hg10 mi
6:20 PM88 °FSunny.13 mph33%29.95 "Hg10 mi
5:50 PM90 °FPassing clouds.12 mph31%29.95 "HgN/A
5:20 PM90 °FPassing clouds.9 mph31%29.95 "HgN/A
4:50 PM91 °FPassing clouds.7 mph30%29.95 "HgN/A
4:20 PM91 °FPassing clouds.5 mph30%29.95 "HgN/A
3:50 PM91 °FPassing clouds.10 mph30%29.95 "HgN/A
3:20 PM90 °FPassing clouds.7 mph29%29.95 "HgN/A
2:50 PM91 °FSunny.6 mph30%29.95 "Hg10 mi
2:20 PM91 °FSunny.7 mph30%29.98 "Hg10 mi
1:50 PM91 °FSunny.3 mph30%29.98 "Hg10 mi
1:20 PM90 °FSunny.6 mph31%29.98 "Hg10 mi
12:50 PM90 °FPassing clouds.7 mph29%29.98 "HgN/A
12:20 PM88 °FSunny.8 mph31%29.98 "Hg10 mi
11:50 AM88 °FPassing clouds.12 mph31%29.98 "HgN/A
11:20 AM86 °FPassing clouds.12 mph35%29.98 "HgN/A
10:50 AM86 °FPassing clouds.10 mph35%30.01 "HgN/A
10:20 AM84 °FPassing clouds.10 mph37%30.01 "HgN/A
Weather by CustomWeather, © 2016

See weather overviewHow to use our weather pages